Location: Unspecified
(47.3532°N, 122.5883°W)
Time: 12:16:27
(UTC-08:00)

Envisat - Visible Passes

Search period start: 17 January 2018 00:00
Search period end: 27 January 2018 00:00
Orbit: 764 x 766 km, 98.2° (Epoch: 17 January)

Date Brightness Start Highest point End Pass type
(mag) Time Alt. Az. Time Alt. Az. Time Alt. Az.
17 Jan 4.8 17:40:47 10° ENE 17:41:11 10° NE 17:41:34 10° NE visible
17 Jan 3.7 19:20:55 38° N 19:20:55 38° N 19:24:11 10° N visible
17 Jan 5.7 21:01:07 14° NW 21:01:07 14° NW 21:02:17 10° NW visible
18 Jan 3.9 18:43:32 28° NE 18:43:32 28° NE 18:47:03 10° N visible
18 Jan 4.8 20:23:44 27° NW 20:23:44 27° NW 20:26:21 10° NNW visible
19 Jan 4.4 18:06:09 16° ENE 18:06:21 16° ENE 18:09:24 10° NNE visible
19 Jan 3.7 19:46:20 45° NNW 19:46:20 45° NNW 19:49:50 10° NNW visible
20 Jan 3.4 19:08:56 44° NE 19:08:56 44° NE 19:12:58 10° N visible
20 Jan 5.3 20:49:08 20° WNW 20:49:08 20° WNW 20:51:28 10° NW visible
21 Jan 6.1 07:10:40 10° ENE 07:12:55 13° E 07:15:10 10° ESE visible
21 Jan 3.9 18:31:32 25° ENE 18:31:38 25° ENE 18:35:43 10° N visible
21 Jan 4.1 20:11:43 40° NW 20:11:43 40° NW 20:15:20 10° NNW visible
22 Jan 4.6 17:54:07 12° ENE 17:55:23 13° NE 17:57:46 10° NNE visible
22 Jan 3.0 19:34:18 65° N 19:34:18 65° N 19:38:42 10° NNW visible
22 Jan 5.8 21:14:29 14° WNW 21:14:29 14° WNW 21:16:02 10° NW visible
23 Jan 3.4 18:56:53 39° ENE 18:57:01 39° ENE 19:01:44 10° N visible
23 Jan 4.8 20:37:04 28° WNW 20:37:04 28° WNW 20:40:35 10° NNW visible
24 Jan 4.2 18:19:27 19° E 18:20:38 21° ENE 18:24:20 10° NNE visible
24 Jan 3.4 19:59:38 60° WNW 19:59:38 60° WNW 20:04:16 10° NNW visible
25 Jan 4.8 17:43:06 10° ENE 17:44:26 11° NE 17:45:46 10° NE visible
25 Jan 2.9 19:22:12 63° E 19:22:29 65° ENE 19:27:31 10° N visible
25 Jan 5.4 21:02:23 18° W 21:02:23 18° W 21:05:27 10° NW visible
26 Jan 3.6 18:44:45 29° E 18:45:57 32° ENE 18:50:27 10° N visible
26 Jan 4.3 20:24:56 37° W 20:24:56 37° W 20:29:38 10° NNW visible
